GEFSMA_con_cape1000_000.txt.gz
Probability
3 3 10 6 0 0 3 35 32 23 10 16 32 65 68 58 68 74 97 97 100 100 100 100 100 100 100 100 100 100 100 100 100 100 100 35 3 0 0 0 0 0 0
3 0 0 0 0 0 0 13 16 13 0 3 16 26 65 77 84 71 90 94 100 100 100 100 100 100 100 100 100 100 100 100 100 100 100 6 0 0 0 0 0 0 0
3 0 0 0 0 0 0 0 0 0 0 0 0 0 10 35 58 71 77 87 94 100 100 100 100 100 100 100 100 100 100 100 100 100 100 13 0 0 0 0 0 0 0
0 0 0 0 0 0 0 0 0 0 0 0 0 0 0 3 6 32 61 87 97 100 100 100 100 100 100 100 100 100 100 100 100 100 100 45 3 0 0 0 0 0 0
0 0 0 0 0 0 0 0 0 0 0 3 0 0 0 0 3 6 35 84 90 100 100 100 100 100 100 100 100 100 100 100 100 100 100 97 94 26 0 0 0 0 0
0 0 0 0 0 0 0 0 0 0 0 6 0 0 0 0 3 3 6 6 29 68 90 97 100 100 100 100 100 100 100 100 100 100 100 100 100 84 0 0 0 0 0
0 23 16 0 0 0 0 0 0 0 0 0 0 0 0 0 0 0 3 6 6 13 10 13 19 65 84 100 100 100 100 100 100 100 100 94 97 61 0 0 0 0 0
0 0 0 0 0 0 0 0 0 0 0 0 0 0 0 0 0 0 0 0 0 3 3 3 3 3 0 13 48 94 100 100 100 100 100 77 68 3 0 0 0 0 0
0 0 0 0 0 0 0 0 0 0 0 0 0 0 0 0 0 0 0 0 0 0 0 0 0 0 0 0 0 3 19 29 84 94 90 71 16 0 0 0 0 0 0
0 0 0 0 0 0 0 0 0 0 0 0 0 0 0 0 0 0 0 0 0 0 0 0 0 0 0 0 0 0 0 0 0 3 10 29 26 0 0 0 0 0 0
0 0 0 0 0 0 0 0 0 0 0 0 0 0 0 0 0 0 0 0 0 0 0 0 0 0 0 0 0 0 0 0 0 0 0 0 0 0 0 0 0 0 0
0 0 0 0 0 0 0 0 0 0 0 0 0 0 0 0 0 0 0 0 0 0 0 0 0 0 0 0 0 0 0 0 0 0 0 0 0 0 0 0 0 0 0
0 0 0 0 0 0 0 0 0 0 0 0 0 0 0 0 0 0 0 0 0 0 0 0 0 0 0 0 0 0 0 0 0 0 0 0 0 0 0 0 0 0 0
0 0 0 0 0 0 0 0 0 0 0 0 0 0 0 0 0 0 0 0 0 0 0 0 0 0 0 0 0 0 0 0 0 0 0 0 0 0 0 0 0 0 0
0 0 0 0 0 0 0 0 0 0 0 0 0 0 0 0 0 0 0 0 0 0 0 0 0 0 0 0 0 0 0 0 0 0 0 0 0 0 0 0 0 0 0
0 0 0 0 0 0 0 0 0 0 0 0 0 0 0 0 0 0 0 0 0 0 0 0 0 0 0 0 0 0 0 0 0 0 0 0 0 0 0 0 0 0 0
0 0 0 0 0 0 0 0 0 0 0 0 0 0 0 0 0 0 0 0 0 0 0 0 0 0 0 0 0 0 0 0 0 0 0 0 0 0 0 0 0 0 0
0 0 0 0 0 0 0 0 0 0 0 0 0 0 0 0 0 0 0 0 0 0 0 0 0 0 0 0 0 0 0 0 0 0 0 0 0 0 0 0 0 0 0
0 0 0 0 0 0 0 0 0 0 0 0 0 0 0 0 0 0 0 0 0 0 0 0 0 0 0 0 0 0 0 0 0 0 0 0 0 0 0 0 0 0 0
0 0 0 0 0 0 0 0 0 0 0 0 0 0 0 0 0 0 0 0 0 0 0 0 0 0 0 0 0 0 0 0 0 0 0 0 0 0 0 0 0 0 0
0 0 0 0 0 0 0 0 0 0 0 0 0 0 0 0 0 0 0 0 0 0 0 0 0 0 0 0 0 0 0 0 0 0 0 0 0 0 0 0 0 0 0
0 0 0 0 0 0 0 0 0 0 0 0 0 0 0 0 0 0 0 0 0 0 0 0 0 0 0 0 0 0 0 0 0 0 0 0 0 0 0 0 0 0 0
0 0 0 0 0 0 0 0 0 0 0 0 0 0 0 0 0 0 0 0 0 0 0 0 0 0 0 0 0 0 0 0 0 0 0 0 0 0 0 0 0 0 0
0 0 0 0 0 0 0 0 0 0 0 0 0 0 0 0 0 0 0 0 0 0 0 0 0 0 0 0 0 0 0 0 0 0 0 0 0 0 0 0 0 0 0
0 0 0 0 0 0 0 0 0 0 0 0 0 0 0 0 0 0 0 0 0 0 0 0 0 0 0 0 0 0 0 0 0 0 0 0 0 0 0 0 0 0 0
0 0 0 0 0 0 0 0 0 0 0 0 0 0 0 0 0 0 0 0 0 0 0 0 0 0 0 0 0 0 0 0 0 0 0 0 0 0 0 0 0 0 0

GEFSMA_con_cape1000_006.txt.gz
Probability
100 74 100 100 100 97 97 100 100 100 100 100 94 55 42 87 97 94 97 100 100 100 100 100 100 100 100 100 100 100 100 100 100 100 100 84 77 81 65 10 0 0 0
100 100 100 100 100 100 90 97 100 100 100 100 100 87 94 90 97 100 100 100 100 100 100 100 100 100 100 100 100 100 100 100 100 100 100 100 97 90 58 26 3 0 0
100 100 100 100 100 100 97 100 100 100 100 100 100 94 100 100 97 100 100 100 100 100 100 100 100 100 100 100 100 100 100 100 100 100 97 100 94 35 6 0 0 0 0
100 100 100 100 100 100 100 100 100 100 100 100 100 100 100 100 100 100 100 100 97 97 100 100 100 100 100 100 100 100 100 100 100 100 100 100 81 10 0 0 0 0 0
97 100 100 100 100 100 100 100 97 100 100 100 100 100 100 100 100 90 87 68 77 94 97 100 100 100 100 100 100 100 100 100 100 100 100 100 94 3 0 0 0 0 0
74 87 100 100 100 100 100 100 100 100 100 100 84 74 77 68 68 58 65 10 6 6 32 58 90 100 100 100 100 100 100 100 100 100 100 100 100 81 0 0 0 0 0
55 61 65 87 94 94 100 100 100 100 100 81 35 23 0 0 0 16 6 0 0 0 13 35 71 90 100 100 87 100 100 100 100 100 100 100 100 87 19 0 0 0 0
29 19 39 55 68 90 94 97 94 90 52 19 6 0 0 0 0 0 0 0 0 0 0 6 81 100 100 100 39 45 97 100 100 100 100 100 84 48 16 3 0 0 0
16 13 10 26 42 68 87 81 74 42 13 6 0 0 0 0 0 0 6 0 26 13 0 19 77 97 100 100 94 3 39 35 90 100 100 100 48 0 0 0 0 0 0
3 0 3 0 3 29 32 23 6 16 26 10 6 16 16 19 0 0 3 3 23 29 13 6 10 32 68 68 81 0 0 0 6 32 74 90 81 0 0 0 0 0 0
0 0 0 0 0 3 0 3 19 10 3 3 0 0 0 3 0 0 0 6 16 35 13 3 0 3 10 13 48 6 0 0 0 0 10 45 45 19 0 0 0 3 0
0 0 0 0 0 0 3 26 26 10 10 10 16 16 3 0 0 3 3 39 65 68 23 19 6 3 3 0 0 0 0 0 0 0 0 0 0 0 0 0 0 0 6
0 0 0 0 0 0 3 26 35 13 3 6 13 16 23 48 32 29 32 52 48 48 6 3 6 6 0 10 52 0 0 0 0 0 0 0 0 0 0 0 0 0 0
0 0 0 0 0 0 0 10 13 3 0 0 0 0 16 13 0 6 0 10 19 3 6 0 3 6 0 16 0 0 0 0 0 0 0 0 0 0 0 0 0 0 0
0 0 0 0 0 0 0 0 0 0 0 0 0 0 6 6 3 0 0 0 0 0 0 0 0 0 0 0 0 0 45 0 0 0 0 0 0 0 0 0 0 0 0
0 0 0 0 0 0 0 0 0 0 0 0 0 0 0 0 13 13 10 10 6 0 0 0 0 0 0 0 0 0 3 0 0 0 0 0 0 0 0 0 0 0 0
0 0 0 0 0 0 0 0 0 0 0 0 0 0 0 0 0 0 0 0 0 0 0 0 0 0 0 0 0 0 0 3 3 0 0 0 0 0 0 0 0 0 0
0 0 0 0 0 0 0 0 0 0 0 0 0 0 0 0 0 0 0 0 0 0 0 0 6 3 0 0 6 23 0 0 0 0 0 0 0 0 0 0 0 0 0
0 0 0 0 0 0 0 0 0 0 0 0 0 0 0 0 0 0 0 0 0 0 0 0 0 16 16 3 13 10 0 39 3 0 0 0 0 0 0 0 0 0 0
0 0 0 0 0 0 0 0 0 0 0 0 0 0 0 0 0 0 0 0 0 0 0 0 0 0 3 0 3 13 26 55 16 0 0 0 0 0 0 0 0 0 0
0 0 0 0 0 0 0 0 0 0 0 0 0 0 0 0 0 0 0 0 0 0 0 0 0 0 0 0 0 0 0 6 13 0 0 0 0 0 0 0 0 0 0
0 0 0 0 0 0 0 0 0 0 0 0 0 0 0 0 0 0 0 0 0 0 0 0 0 0 0 0 0 0 0 0 0 0 0 0 0 0 0 0 0 0 0
0 0 0 0 0 0 0 0 0 0 0 0 0 0 0 0 0 0 0 0 0 0 0 0 0 0 0 0 0 0 0 0 0 0 0 0 0 0 0 0 0 0 0
0 0 0 0 0 0 0 0 0 0 0 0 0 0 0 0 0 0 0 0 0 0 0 0 0 0 0 0 0 0 0 0 0 0 0 0 0 0 0 0 0 0 0
0 0 0 0 0 0 0 0 0 0 0 0 0 0 0 0 0 0 0 0 0 0 0 0 0 0 0 0 0 0 0 0 0 0 0 0 0 0 0 0 0 0 0
0 0 0 0 0 0 0 0 0 0 0 0 0 0 0 0 0 0 0 0 0 0 0 0 0 0 0 0 0 0 0 0 0 0 0 0 0 0 0 0 0 0 0

GEFSMA_con_cape1000_012.txt.gz
Probability
100 100 100 100 100 100 100 100 100 100 100 100 100 100 100 100 100 100 100 100 100 100 100 100 100 100 100 100 100 100 100 100 100 100 100 100 100 100 97 87 71 29 3
100 100 100 100 100 100 100 100 100 100 100 100 100 100 100 100 100 100 100 100 100 100 100 100 100 100 100 100 100 100 100 100 100 100 100 100 100 100 100 100 100 48 3
100 100 100 100 100 100 100 100 100 100 100 100 100 100 100 100 100 100 100 100 100 100 100 100 100 100 100 100 100 100 100 100 100 100 100 100 94 81 84 84 87 58 3
100 100 100 100 100 100 100 97 97 97 94 97 94 94 97 100 100 100 100 100 100 100 100 100 100 100 100 100 100 100 100 100 100 100 100 100 97 77 68 74 71 29 0
100 100 100 100 100 100 97 90 90 87 84 84 77 77 74 84 97 100 100 100 100 100 100 100 100 100 100 100 100 100 100 100 100 100 100 100 100 84 23 16 3 0 0
100 100 100 100 100 100 100 90 84 87 87 81 52 29 42 68 90 100 94 94 97 97 94 90 94 100 100 100 100 100 100 100 100 100 100 100 100 100 6 0 0 0 0
100 100 100 100 100 100 100 84 77 77 81 84 65 32 35 39 55 74 77 77 81 84 87 90 90 84 94 100 100 100 100 100 100 100 100 100 100 100 32 0 0 0 0
100 100 100 97 90 94 97 90 84 77 71 65 35 19 10 16 29 26 65 84 77 81 81 52 71 90 97 87 42 94 100 100 100 100 100 100 100 100 65 10 0 0 0
100 100 94 90 87 87 77 87 77 52 42 32 19 10 0 0 19 48 81 87 87 90 77 58 68 87 100 97 77 0 87 100 100 100 100 100 100 90 68 42 13 0 0
100 100 100 90 94 71 71 58 32 35 16 16 10 3 0 3 3 16 32 74 77 77 71 52 42 58 87 97 100 68 3 6 97 100 100 100 100 87 52 65 84 58 0
100 100 90 84 81 65 48 35 23 23 10 3 3 0 3 6 6 3 3 26 39 42 58 68 65 55 61 68 61 23 0 0 0 52 94 97 97 97 100 94 100 97 61
100 94 84 77 61 35 32 23 3 3 3 0 0 0 0 0 3 3 3 3 6 29 55 81 77 45 26 6 0 0 0 0 0 0 0 10 26 45 84 94 94 90 84
84 81 58 52 35 19 3 3 6 3 0 0 0 0 0 3 3 13 3 6 6 39 26 58 39 42 0 13 0 0 0 0 0 0 0 0 0 0 10 19 42 48 58
68 68 45 29 13 6 3 3 0 0 0 0 0 0 0 3 3 0 3 0 0 0 0 0 10 10 6 3 0 0 0 0 0 0 0 0 0 0 0 0 0 3 3
32 23 16 13 10 6 0 0 0 0 0 0 0 0 0 0 0 0 0 0 0 0 0 0 0 3 0 3 0 0 0 0 0 0 0 0 0 0 0 0 0 0 0
10 3 3 10 6 3 0 0 0 0 0 0 0 0 0 0 0 0 0 0 0 0 0 0 0 0 0 0 0 0 0 0 0 0 0 0 0 0 0 0 0 0 0
0 0 0 0 0 0 0 0 0 0 0 0 0 0 0 0 0 0 0 0 0 0 0 0 0 0 0 0 0 0 0 0 0 0 0 0 0 0 0 0 0 0 0
0 0 0 0 0 0 0 0 0 0 0 0 0 0 0 0 0 0 0 0 0 0 0 0 0 0 0 0 0 0 0 0 0 0 0 0 0 0 0 0 0 0 0
0 0 0 0 0 0 0 0 0 0 0 0 0 0 0 0 0 0 0 0 0 0 0 0 0 0 0 0 0 0 0 0 0 0 0 0 0 0 0 0 0 0 0
0 0 0 0 0 0 0 0 0 0 0 0 0 0 0 0 0 0 0 0 0 0 0 0 0 0 0 0 0 0 0 0 0 0 0 0 0 0 0 0 0 0 0
0 0 0 0 0 0 0 0 0 0 0 0 0 0 0 0 0 0 0 0 0 0 0 0 0 0 0 0 0 0 0 0 0 0 0 0 0 0 0 0 0 0 0
0 0 0 0 0 0 0 0 0 0 0 0 0 0 0 0 0 0 0 0 0 0 0 0 0 0 0 0 0 0 0 0 0 0 0 0 0 0 0 0 0 0 0
0 0 0 0 0 0 0 0 0 0 0 0 0 0 0 0 0 0 0 0 0 0 0 0 0 0 0 0 0 0 0 0 0 0 0 0 0 0 0 0 0 0 0
0 0 0 0 0 0 0 0 0 0 0 0 0 0 0 0 0 0 0 0 0 0 0 0 0 0 0 0 0 0 0 0 0 0 0 0 0 0 0 0 0 0 0
0 0 0 0 0 0 0 0 0 0 0 0 0 0 0 0 0 0 0 0 0 0 0 0 0 0 0 0 0 0 0 0 0 0 0 0 0 0 0 0 0 0 0
0 0 0 0 0 0 0 0 0 0 0 0 0 0 0 0 0 0 0 0 0 0 0 0 0 0 0 0 0 0 0 0 0 0 0 0 0 0 0 0 0 0 0

GEFSMA_con_cape1000_018.txt.gz
Probability
94 97 100 94 100 97 97 97 90 87 84 68 23 6 3 3 6 3 3 100 100 100 100 100 100 100 100 100 100 100 100 100 100 100 100 100 100 100 100 97 68 26 10
90 100 97 90 100 94 90 90 84 81 71 55 16 10 26 35 23 10 10 29 100 100 100 100 100 100 100 100 100 100 100 100 100 100 100 100 100 100 100 100 90 42 6
94 100 94 90 97 97 74 71 68 71 74 55 55 55 58 42 48 32 29 35 68 100 100 100 100 100 100 100 100 100 100 100 100 100 100 100 97 97 100 97 94 58 13
100 97 97 97 94 81 58 45 45 58 52 45 39 19 16 16 23 23 32 39 52 74 97 100 100 100 100 100 100 100 100 100 100 100 100 100 94 65 29 55 74 48 3
97 97 94 90 87 68 58 65 35 32 32 23 19 3 6 3 6 6 10 19 32 55 58 81 100 100 100 100 100 100 100 100 100 100 100 100 100 68 6 0 13 13 0
84 90 87 87 81 68 48 39 32 19 13 10 10 10 0 0 0 0 0 6 6 19 29 35 74 90 100 100 100 100 97 97 100 100 100 100 100 94 16 0 0 0 0
81 94 81 74 68 61 52 39 19 3 0 0 0 0 0 0 0 0 0 0 0 0 0 16 29 26 58 97 100 100 97 100 100 100 100 100 100 100 32 0 0 0 0
58 71 65 55 61 58 48 32 26 13 0 0 0 0 0 0 0 0 0 0 0 0 0 0 3 10 16 32 26 61 97 100 100 100 100 100 100 97 52 3 0 0 0
42 58 58 52 52 29 39 35 32 13 6 0 0 0 0 0 0 0 0 0 0 0 0 0 0 3 3 3 6 3 61 81 97 100 100 97 87 87 45 16 3 0 0
6 16 35 48 32 23 23 23 19 6 3 3 3 0 0 0 0 0 0 0 0 0 0 0 0 0 0 0 0 3 0 3 48 77 94 94 65 42 16 13 39 6 0
0 3 13 10 19 10 10 10 6 0 0 0 0 0 0 0 0 0 0 0 0 0 0 0 0 0 0 0 0 0 0 0 0 3 16 23 32 26 39 48 74 68 26
0 0 0 0 6 6 3 3 0 0 0 0 0 0 0 0 0 0 0 0 0 0 0 0 0 0 0 0 0 0 0 0 0 0 0 3 3 3 32 52 77 90 97
0 0 0 0 0 0 0 3 0 0 0 0 0 0 0 0 0 0 0 0 0 0 0 0 0 0 0 0 0 0 0 0 0 0 0 0 0 0 0 0 16 35 48
0 0 0 0 0 0 0 0 0 0 0 0 0 0 0 0 0 0 0 0 0 0 0 0 0 0 0 0 0 0 0 0 0 0 0 0 0 0 0 0 0 0 3
0 0 0 0 0 0 0 0 0 0 0 0 0 0 0 0 0 0 0 0 0 0 0 0 0 0 0 0 0 0 0 0 0 0 0 0 0 0 0 0 0 0 0
0 0 0 0 0 0 0 0 0 0 0 0 0 0 0 0 0 0 0 0 0 0 0 0 0 0 0 0 0 0 0 0 0 0 0 0 0 0 0 0 0 0 0
0 0 0 0 0 0 0 0 0 0 0 0 0 0 0 0 0 0 0 0 0 0 0 0 0 0 0 0 0 0 0 0 0 0 0 0 0 0 0 0 0 0 0
0 0 0 0 0 0 0 0 0 0 0 0 0 0 0 0 0 0 0 0 0 0 0 0 0 0 0 0 0 0 0 0 0 0 0 0 0 0 0 0 0 0 0
0 0 0 0 0 0 0 0 0 0 0 0 0 0 0 0 0 0 0 0 0 0 0 0 0 0 0 0 0 0 0 0 0 0 0 0 0 0 0 0 0 0 0
0 0 0 0 0 0 0 0 0 0 0 0 0 0 0 0 0 0 0 0 0 0 0 0 0 0 0 0 0 0 0 0 0 0 0 0 0 0 0 0 0 0 0
0 0 0 0 0 0 0 0 0 0 0 0 0 0 0 0 0 0 0 0 0 0 0 0 0 0 0 0 0 0 0 0 0 0 0 0 0 0 0 0 0 0 0
0 0 0 0 0 0 0 0 0 0 0 0 0 0 0 0 0 0 0 0 0 0 0 0 0 0 0 0 0 0 0 0 0 0 0 0 0 0 0 0 0 0 0
0 0 0 0 0 0 0 0 0 0 0 0 0 0 0 0 0 0 0 0 0 0 0 0 0 0 0 0 0 0 0 0 0 0 0 0 0 0 0 0 0 0 0
0 0 0 0 0 0 0 0 0 0 0 0 0 0 0 0 0 0 0 0 0 0 0 0 0 0 0 0 0 0 0 0 0 0 0 0 0 0 0 0 0 0 0
0 0 0 0 0 0 0 0 0 0 0 0 0 0 0 0 0 0 0 0 0 0 0 0 0 0 0 0 0 0 0 0 0 0 0 0 0 0 0 0 0 0 0
0 0 0 0 0 0 0 0 0 0 0 0 0 0 0 0 0 0 0 0 0 0 0 0 0 0 0 0 0 0 0 0 0 0 0 0 0 0 0 0 0 0 0

GEFSMA_con_cape1000_024.txt.gz
Probability
94 94 97 94 94 94 94 90 90 87 84 87 90 94 97 97 84 74 48 81 100 100 100 100 100 100 100 100 100 100 100 100 100 97 97 94 97 100 100 81 35 10 0
90 81 77 74 81 87 84 84 81 81 77 81 81 81 81 84 65 81 74 65 97 97 100 100 100 100 100 100 100 100 100 100 100 100 97 97 100 97 97 100 71 16 0
68 65 65 74 81 81 84 81 74 71 68 71 77 74 77 81 81 74 81 87 87 97 97 97 97 100 100 100 100 100 100 100 100 100 100 100 97 94 94 97 84 32 0
77 81 87 90 90 87 84 74 68 61 65 68 71 68 65 77 71 71 84 84 81 77 87 97 97 97 97 97 100 100 100 100 100 100 100 97 90 81 65 68 77 23 0
84 81 84 84 84 87 84 71 55 55 58 61 58 55 58 61 61 68 74 61 61 65 61 58 90 90 94 97 100 100 100 100 100 100 100 97 97 87 45 29 23 6 3
52 61 61 74 74 74 74 65 61 61 58 61 55 45 48 42 45 35 39 42 42 39 39 39 39 55 81 90 100 100 100 100 100 100 100 100 100 97 55 26 13 3 0
13 26 35 39 48 61 68 61 55 58 48 55 29 26 26 23 29 32 29 26 23 19 23 19 16 19 32 55 74 94 100 100 100 100 100 100 100 97 55 26 6 0 0
3 3 10 6 10 23 35 55 52 52 48 39 23 10 3 0 0 3 19 19 13 10 6 6 10 10 13 16 16 29 81 94 100 100 100 94 100 81 58 32 13 0 0
0 3 3 3 6 10 6 19 32 39 39 39 23 10 0 0 0 0 0 0 3 6 6 6 0 0 0 16 26 0 39 68 87 97 100 94 48 35 26 26 23 3 0
0 0 0 0 0 0 0 3 6 26 29 32 23 6 6 0 0 0 0 0 0 0 0 0 0 0 0 6 0 0 0 10 35 81 84 77 61 13 6 6 32 13 3
0 0 0 0 0 0 0 0 3 13 23 29 29 6 6 6 3 0 0 0 0 0 0 0 0 0 0 6 6 0 0 0 0 10 52 61 65 55 13 23 65 77 35
0 0 0 0 0 0 0 0 0 3 16 19 23 10 3 3 0 0 0 0 0 0 0 0 0 0 0 0 0 0 0 0 0 0 0 3 10 19 29 42 71 81 97
0 0 0 0 0 0 0 0 0 3 3 6 10 6 3 0 0 0 0 0 0 0 0 0 0 0 0 0 0 0 0 0 0 0 0 0 0 0 0 0 10 32 52
0 0 0 0 0 0 0 0 0 0 0 0 0 3 3 0 0 0 0 0 0 0 0 0 0 0 0 0 0 0 0 0 0 0 0 0 0 0 0 0 0 0 0
0 0 0 0 0 0 0 0 0 0 0 0 0 3 3 0 0 0 0 0 0 0 0 0 0 0 0 0 0 0 0 0 0 0 0 0 0 0 0 0 0 0 0
0 0 0 0 0 0 0 0 0 0 0 0 0 3 0 0 0 0 0 0 0 0 0 0 0 0 0 0 0 0 0 0 0 0 0 0 0 0 0 0 0 0 0
0 0 0 0 0 0 0 0 0 0 0 0 0 0 0 0 0 0 0 0 0 0 0 0 0 0 0 0 0 0 0 0 0 0 0 0 0 0 0 0 0 0 0
0 0 0 0 0 0 0 0 0 0 0 0 0 0 0 0 0 0 0 0 0 0 0 0 0 0 0 0 0 0 0 0 0 0 0 0 0 0 0 0 0 0 0
0 0 0 0 0 0 0 0 0 0 0 0 0 0 0 0 0 0 0 0 0 0 0 0 0 0 0 0 0 0 0 0 0 0 0 0 0 0 0 0 0 0 0
0 0 0 0 0 0 0 0 0 0 0 0 0 0 0 0 0 0 0 0 0 0 0 0 0 0 0 0 0 0 0 0 0 0 0 0 0 0 0 0 0 0 0
0 0 0 0 0 0 0 0 0 0 0 0 0 0 0 0 0 0 0 0 0 0 0 0 0 0 0 0 0 0 0 0 0 0 0 0 0 0 0 0 0 0 0
0 0 0 0 0 0 0 0 0 0 0 0 0 0 0 0 0 0 0 0 0 0 0 0 0 0 0 0 0 0 0 0 0 0 0 0 0 0 0 0 0 0 0
0 0 0 0 0 0 0 0 0 0 0 0 0 0 0 0 0 0 0 0 0 0 0 0 0 0 0 0 0 0 0 0 0 0 0 0 0 0 0 0 0 0 0
0 0 0 0 0 0 0 0 0 0 0 0 0 0 0 0 0 0 0 0 0 0 0 0 0 0 0 0 0 0 0 0 0 0 0 0 0 0 0 0 0 0 0
0 0 0 0 0 0 0 0 0 0 0 0 0 0 0 0 0 0 0 0 0 0 0 0 0 0 0 0 0 0 0 0 0 0 0 0 0 0 0 0 0 0 0
0 0 0 0 0 0 0 0 0 0 0 0 0 0 0 0 0 0 0 0 0 0 0 0 0 0 0 0 0 0 0 0 0 0 0 0 0 0 0 0 0 0 0